TITAN 3C TRANSTAGE DEB, 26048

Orbit data source: Space-Track

TITAN 3C TRANSTAGE DEB, 26048 is space debris in HEO originally from a launch on Tue, 21 Dec 1965 UTC launched from the Air Force Eastern Test Range (AFETR). Debris objects in space refer to the collection of defunct objects orbiting the Earth. Examples of debris include non-operational satellites, rocket bodies, and fragments generated from explosions, collisions, or faulty payload assembly.

Loading next visibility...
TITAN 3C TRANSTAGE DEB details
Identifier
26048, 1965-108AG
Orbit
HEO
Last TLE update22 hours ago
Origin
Flag of USUSAF SSD (US)
ManufacturerUnknown
MissionSpacecraft
Bus & MotorUnknown
MassUnknown
Launch date (UTC)
1965-12-21 (59 years ago)
Launch vehicleUnknown
Launch site
Air Force Eastern Test Range (AFETR)
Object type
Payload
Rocket body
Debris
Shape & HBRUnknown
Radar Cross SectionMedium (>0.1 m² and <1 m²)

Expand to show TLE details & history

TLE from 22 hours ago
0 TITAN 3C TRANSTAGE DEB
1 26048U 65108AG  24356.28677193  .00005422  00000-0  33956-2 0  9994
2 26048  26.4764  69.7421 6278669 308.3597  10.3028  3.57706308313515
Epoch: 2024-12-21T06:52Z
Definitive object data (Epoch: 2024-12-21T06:52:57.094Z)
Latitude-0.00004°
Longitude-123.85065°
Altitude1,506.109 km
Speed8.89 km/s
True Right ascension04h 38m 54s
True Declination0° 00' 00"
Sunlit
Object was in full shadow at TLE epoch
Visualization TLE readout
Latitude24.29897°
Longitude-9.25196°
Altitude21,089.559 km
Speed2.637 km/s
Apparent Right ascension12h 52m 07s
Apparent Declination14° 31' 25"
Sunlit
Object is in daylight
Visualization observer readout
Local Sidereal Time04:14:45
Azimuth51.944° ENE
Elevation-18.045°
Doppler factor1
Orbital elements
Apogee altitude23,027.047 km
Perigee altitude343.937 km
Semi-major axis18,063.629 km
Eccentricity0.6278669
Inclination26.4764°
RAAN69.7421°
Arg. of periapsis308.3597°
True anomaly51.84644°
Mean anomaly10.3028°
Eccentric anomaly26.16698°
Mean motion0.894 °/min
BSTAR0.0033956
Orbital period402.69 mins
Loading maneuver chart data...

TITAN 3C TRANSTAGE DEB Visibility forecast

Observer location: undefined°, undefined

Span
Click to sort rows by Start time (UTC) header in descending order
Start Az.
Max El. time (UTC)
Max El. Az.
Max El.
End time (UTC)
End Az.
330 mins2024-12-22 09:54:12.350Z240.865° WSW2024-12-22 10:38:12.350Z162.65° S43.014°2024-12-22 15:24:12.350Z130.854° SE
|